Retour au catalogue

SL-14 R/B

ActifPO
NORAD 21820·ROCKET BODY·🇷🇺 Russia

Lancé Dec 18, 1991 depuis Plesetsk Cosmodrome

Loading…

Prochains Passages (prochaines 24 heures)

TLE

FraisSource: Space-Track

Époque: Sep 14, 2026, 11:36 UTC

1 21820U 91086B   26257.48362645  .00000416  00000-0  76016-4 0  9992
2 21820  82.5555 283.4511 1560772  50.0980 322.7167 11.96866503509837

Suivez SL-14 R/B en temps réel avec AllMySat

Download on the App Store